GPS BIIR-2 (PRN 13) 1 24876U 97035A 21110.56563709 .00000030 00000-0 00000-0 0 9990 2 24876 55.4669 172.1696 0047225 54.9767 305.5365 2.00562776174176 GPS BIIR-4 (PRN 20) 1 26360U 00025A 21110.24103906 .00000042 00000-0 00000-0 0 9990 2 26360 53.7333 96.4069 0060145 175.4620 324.7128 2.00793483153482 GPS BIIR-5 (PRN 28) 1 26407U 00040A 21110.47659269 .00000014 00000-0 00000-0 0 9991 2 26407 55.7659 290.0336 0176734 283.1127 312.4358 2.00489198152165 GPS BIIR-8 (PRN 16) 1 27663U 03005A 21109.48170937 .00000013 00000-0 00000-0 0 9998 2 27663 55.8194 289.8684 0121112 37.6657 328.2278 2.00562875133515 GPS BIIR-9 (PRN 21) 1 27704U 03010A 21110.43552340 -.00000063 00000-0 00000-0 0 9995 2 27704 54.8245 40.4787 0243870 293.7053 253.7584 2.00561056132323 GPS BIIR-10 (PRN 22) 1 28129U 03058A 21110.25431199 .00000045 00000-0 00000-0 0 9996 2 28129 53.5441 99.0674 0072518 302.1445 57.1618 2.00576907127007 GPS BIIR-11 (PRN 19) 1 28190U 04009A 21110.49452794 -.00000065 00000-0 00000-0 0 9994 2 28190 56.2030 350.6956 0089882 104.3312 68.3453 2.00569268125163 GPS BIIR-13 (PRN 02) 1 28474U 04045A 21110.62100274 -.00000062 00000-0 00000-0 0 9994 2 28474 55.1606 40.4533 0205139 272.6543 267.1503 2.00565743120658 CRE (WAAS/PRN 138) 1 28868U 05036A 21110.55504566 -.00000074 00000-0 00000-0 0 9999 2 28868 0.0459 66.0547 0003108 325.5488 269.7710 1.00272000 27561 GPS BIIRM-1 (PRN 17) 1 28874U 05038A 21110.47349608 -.00000061 00000-0 00000-0 0 9999 2 28874 56.2894 348.1067 0135953 270.1746 269.8939 2.00574648114050 IOR-W (EGNOS/PRN 126) 1 28899U 05044A 21110.50390494 .00000013 00000-0 00000-0 0 9992 2 28899 3.2055 33.0874 0002708 5.9998 55.0190 1.00272132 56633 GPS BIIRM-2 (PRN 31) 1 29486U 06042A 21110.34759191 -.00000002 00000-0 00000-0 0 9998 2 29486 54.7831 226.1216 0098826 13.5694 350.5942 2.00551908106645 GPS BIIRM-3 (PRN 12) 1 29601U 06052A 21108.78774537 .00000011 00000-0 00000-0 0 9993 2 29601 55.8138 288.8208 0082592 68.1761 292.6963 2.00553919105592 COSMOS 2425 (716) 1 29670U 06062A 21108.89464049 .00000038 00000-0 00000-0 0 9995 2 29670 64.8644 257.4587 0024178 348.2328 188.3922 2.13114974111400 GPS BIIRM-4 (PRN 15) 1 32260U 07047A 21108.10145212 .00000028 00000-0 00000-0 0 9999 2 32260 53.2225 158.1686 0128988 55.3948 305.8911 2.00572039 98988 COSMOS 2433 (720) 1 32275U 07052A 21110.52378718 -.00000065 00000-0 00000-0 0 9991 2 32275 66.0536 18.7091 0002751 286.1327 236.8452 2.13104172104957 COSMOS 2432 (719) 1 32276U 07052B 21110.56957275 -.00000064 00000-0 00000+0 0 9995 2 32276 66.0664 18.8012 0011627 333.0119 174.5178 2.13103575104956 GPS BIIRM-5 (PRN 29) 1 32384U 07062A 21110.17128419 -.00000063 00000-0 00000-0 0 9993 2 32384 56.3949 348.8284 0015409 126.1892 57.2579 2.00566579 97723 COSMOS 2434 (721) 1 32393U 07065A 21110.45452498 .00000030 00000-0 00000-0 0 9997 2 32393 64.4787 255.8915 0004642 84.5367 273.5365 2.13103068103652 COSMOS 2436 (723) 1 32395U 07065C 21110.38141014 .00000031 00000-0 00000-0 0 9991 2 32395 64.4908 255.9469 0015382 6.8426 71.2552 2.13102932103593 GPS BIIRM-6 (PRN 07) 1 32711U 08012A 21110.50161811 -.00000003 00000-0 00000-0 0 9997 2 32711 54.5346 225.1470 0149651 226.5710 132.1773 2.00573345 95998 GPS BIIRM-8 (PRN 05) 1 35752U 09043A 21109.73672664 .00000049 00000-0 00000-0 0 9995 2 35752 54.7723 102.6298 0058528 49.0678 132.7874 2.00542128 85562 COSMOS 2456 (730) 1 36111U 09070A 21110.43671950 .00000085 00000-0 00000-0 0 9991 2 36111 64.2665 135.5716 0005752 304.3240 211.3936 2.13099212 88321 COSMOS 2457 (733) 1 36112U 09070B 21110.19271339 .00000082 00000-0 00000-0 0 9999 2 36112 64.2487 135.4667 0004634 192.8026 259.6430 2.13101422 88329 BEIDOU 3 (C01) 1 36287U 10001A 21110.59096634 -.00000280 00000-0 00000-0 0 9996 2 36287 1.7884 43.9278 0003911 79.1295 78.9832 1.00270424 41277 COSMOS 2459 (731) 1 36400U 10007A 21110.41348870 -.00000065 00000-0 00000-0 0 9993 2 36400 65.9504 17.6443 0026772 349.7320 305.2262 2.13107901 86661 COSMOS 2461 (735) 1 36401U 10007B 21110.41378964 -.00000065 00000-0 00000-0 0 9991 2 36401 65.9469 17.6092 0021782 6.1156 290.4878 2.13103879 86678 COSMOS 2460 (732) 1 36402U 10007C 21110.48030512 -.00000065 00000-0 00000-0 0 9993 2 36402 65.9334 17.5645 0001867 353.9465 297.9116 2.13106575 86674 GPS BIIF-1 (PRN 25) 1 36585U 10022A 21109.88888889 .00000014 00000-0 00000-0 0 9995 2 36585 55.0885 284.5939 0097393 54.3642 350.2331 2.00567274 79809 BEIDOU 5 (C06) 1 36828U 10036A 21110.58686626 -.00000109 00000-0 00000-0 0 9990 2 36828 54.1719 180.1296 0110808 234.8088 124.3149 1.00279246 39337 COSMOS 2464 (736) 1 37139U 10041C 21110.59216534 .00000028 00000-0 00000-0 0 9999 2 37139 64.0785 255.1737 0028328 13.7154 311.2956 2.13100686 82733 QZS-1 (QZSS/PRN 183) 1 37158U 10045A 21110.38565987 -.00000082 00000-0 00000-0 0 9991 2 37158 41.9043 139.2719 0754264 270.3129 78.6242 1.00282680 38840 BEIDOU 6 (C04) 1 37210U 10057A 21110.59489197 -.00000112 00000-0 00000-0 0 9998 2 37210 0.7559 40.2331 0001972 175.0753 7.6669 1.00273489 38392 BEIDOU 7 (C07) 1 37256U 10068A 21110.30008813 -.00000184 00000-0 00000-0 0 9990 2 37256 50.9607 294.6869 0082861 215.1467 286.5708 1.00273868 37907 COSMOS 2471 (701K) 1 37372U 11009A 21110.28178005 -.00000065 00000-0 00000-0 0 9991 2 37372 65.9281 17.5093 0013248 229.8296 68.9903 2.13081440 78942 BEIDOU 8 (C08) 1 37384U 11013A 21110.47624212 -.00000177 00000-0 00000-0 0 9990 2 37384 59.7005 58.4853 0052931 207.8325 233.4615 1.00269912 36781 GSAT-8 (GAGAN/PRN 127) 1 37605U 11022A 21110.57395536 .00000085 00000-0 00000-0 0 9998 2 37605 0.0159 203.9312 0005213 105.2231 161.4326 1.00272955 34330 GPS BIIF-2 (PRN 01) 1 37753U 11036A 21110.45257330 -.00000054 00000-0 00000-0 0 9990 2 37753 56.3811 45.2181 0105754 46.8477 131.2591 2.00562789 71492 BEIDOU 9 (C09) 1 37763U 11038A 21110.65218819 -.00000085 00000-0 00000-0 0 9998 2 37763 54.4599 182.5646 0081468 225.4937 131.4777 1.00277345 35754 GSAT0101 (PRN E11) 1 37846U 11060A 21110.32272745 -.00000070 00000-0 00000-0 0 9991 2 37846 56.8090 32.8700 0004257 357.1119 2.8888 1.70475271 59005 GSAT0102 (PRN E12) 1 37847U 11060B 21107.59175267 -.00000075 00000-0 00000-0 0 9993 2 37847 56.8084 32.9441 0005257 332.4764 197.7070 1.70475592 58962 COSMOS 2476 (744) 1 37867U 11064A 21110.38454402 .00000084 00000-0 00000-0 0 9990 2 37867 64.5616 136.7640 0022096 241.2016 136.3526 2.13101847 73679 COSMOS 2477 (745) 1 37868U 11064B 21110.24962319 .00000083 00000-0 00000-0 0 9996 2 37868 64.5692 136.8302 0019541 242.7159 209.6775 2.13101715 73624 COSMOS 2475 (743) 1 37869U 11064C 21110.30751582 .00000083 00000-0 00000-0 0 9992 2 37869 64.5768 136.8313 0023866 260.5386 193.8985 2.13101891 73639 BEIDOU 10 (C10) 1 37948U 11073A 21110.61813726 -.00000124 00000-0 00000-0 0 9990 2 37948 51.0598 294.2954 0070092 213.6993 18.9286 1.00266474 34514 LUCH 5A (SDCM/PRN 140) 1 37951U 11074B 21110.59628774 -.00000043 00000-0 00000-0 0 9999 2 37951 3.9784 106.6656 0005051 301.6463 182.2318 1.00269605 34306 BEIDOU 11 (C05) 1 38091U 12008A 21110.57474047 .00000058 00000-0 00000-0 0 9998 2 38091 1.4299 65.8919 0008925 315.0889 93.4978 1.00274098 33595 BEIDOU 12 (C11) 1 38250U 12018A 21110.26659022 -.00000085 00000-0 00000-0 0 9991 2 38250 56.7565 7.5320 0021390 252.0599 270.2837 1.86234317 61201 BEIDOU 13 (C12) 1 38251U 12018B 21109.87875794 -.00000086 00000-0 00000-0 0 9994 2 38251 56.6795 6.8976 0012439 258.6818 48.0611 1.86234215 61191 SES-5 (EGNOS/PRN 136) 1 38652U 12036A 21110.38452201 .00000035 00000-0 00000-0 0 9994 2 38652 0.0313 299.0082 0001885 84.4863 328.6087 1.00272717 25602 BEIDOU 15 (C14) 1 38775U 12050B 21110.21087402 .00000073 00000-0 00000-0 0 9997 2 38775 55.1807 125.9464 0015803 315.7670 51.0335 1.86232298 58589 GSAT-10 (GAGAN/PRN 128) 1 38779U 12051B 21110.59758035 -.00000165 00000-0 00000-0 0 9993 2 38779 0.0460 104.0081 0000315 255.5250 147.4926 1.00273473 31232 GPS BIIF-3 (PRN 24) 1 38833U 12053A 21109.18891948 .00000001 00000-0 00000-0 0 9998 2 38833 53.5826 220.7513 0108929 41.4649 319.3650 2.00555732 61747 GSAT0103 (PRN E19) 1 38857U 12055A 21108.60448283 .00000051 00000-0 00000+0 0 9996 2 38857 55.0308 153.3829 0004866 265.7772 94.2445 1.70473780 53008 GSAT0104 (PRN E20) 1 38858U 12055B 21105.01962709 .00000045 00000-0 00000+0 0 9996 2 38858 55.0289 153.4809 0004061 265.8558 94.1872 1.70459340 52903 BEIDOU 16 (C02) 1 38953U 12059A 21110.57971292 -.00000174 00000-0 00000-0 0 9995 2 38953 1.8305 84.8054 0009300 283.5472 133.2446 1.00271101 31166 LUCH 5B (SDCM/PRN 125) 1 38977U 12061A 21110.20076024 -.00000130 00000-0 00000+0 0 9994 2 38977 6.3900 65.6056 0003619 346.9511 211.9088 1.00272917 31282 COSMOS 2485 (747) 1 39155U 13019A 21110.44377416 .00000085 00000-0 00000-0 0 9991 2 39155 64.7277 137.0986 0022452 237.1246 230.3469 2.13101891 62148 GPS BIIF-4 (PRN 27) 1 39166U 13023A 21110.05239992 -.00000059 00000-0 00000-0 0 9993 2 39166 55.9358 344.6581 0092423 33.7056 326.9256 2.00563186 58093 IRNSS-1A 1 39199U 13034A 21110.03469396 .00000110 00000-0 00000-0 0 9999 2 39199 31.5053 91.9157 0019043 189.3928 354.6320 1.00276718 28475 GPS BIIF-5 (PRN 30) 1 39533U 14008A 21109.55456601 .00000001 00000-0 00000-0 0 9992 2 39533 53.6878 226.2014 0051822 201.5462 158.2373 2.00557901 51900 ASTRA 5B (EGNOS/PRN 123) 1 39617U 14011B 21110.56924462 .00000155 00000-0 00000-0 0 9997 2 39617 0.0423 321.6174 0002850 71.9814 51.7061 1.00270207 25787 COSMOS 2492 (754) 1 39620U 14012A 21110.38744073 -.00000065 00000-0 00000-0 0 9991 2 39620 65.8211 17.3069 0014642 328.3486 130.7748 2.13103204 55097 IRNSS-1B 1 39635U 14017A 21110.02966111 .00000096 00000-0 00000-0 0 9995 2 39635 28.7786 272.1378 0020950 178.9682 182.9104 1.00270720 25903 LUCH 5V (SDCM/PRN 141) 1 39727U 14023A 21110.51009868 -.00000268 00000-0 00000-0 0 9997 2 39727 0.5966 50.2637 0005084 17.1277 59.8176 1.00270071 25473 GPS BIIF-6 (PRN 06) 1 39741U 14026A 21110.33073899 -.00000054 00000-0 00000-0 0 9994 2 39741 56.3502 44.7500 0024809 300.1713 59.5806 2.00555445 50755 COSMOS 2500 (755) 1 40001U 14032A 21109.80106271 -.00000066 00000-0 00000-0 0 9996 2 40001 65.7623 17.2199 0004644 211.6572 17.4043 2.13102717 53299 GPS BIIF-7 (PRN 09) 1 40105U 14045A 21109.41703744 .00000032 00000-0 00000-0 0 9992 2 40105 54.6181 163.7324 0016607 107.3317 252.9233 2.00548438 48276 GSAT0201 (PRN E18) 1 40128U 14050A 21110.09367108 -.00000076 00000-0 00000-0 0 9998 2 40128 50.4957 349.1484 1650847 109.3745 269.1701 1.85519028 43361 GSAT0202 (PRN E14) 1 40129U 14050B 21108.20023775 -.00000086 00000-0 00000+0 0 9998 2 40129 50.5283 348.2708 1648218 110.1229 268.3343 1.85519682 45462 IRNSS-1C 1 40269U 14061A 21110.59758098 -.00000160 00000-0 00000-0 0 9997 2 40269 2.1986 152.1017 0018384 9.6268 345.3274 1.00272117 23791 GPS BIIF-8 (PRN 03) 1 40294U 14068A 21110.29207215 .00000058 00000-0 00000-0 0 9994 2 40294 55.5205 104.6904 0032423 44.4907 315.7849 2.00570670 47420 COSMOS 2501 (702K) 1 40315U 14075A 21110.07162543 .00000031 00000-0 00000-0 0 9997 2 40315 63.7893 256.0197 0016116 206.5516 36.1922 2.13101372 49704 GPS BIIF-9 (PRN 26) 1 40534U 15013A 21109.93463739 .00000012 00000-0 00000-0 0 9996 2 40534 53.9961 282.2218 0057433 15.2419 344.9201 2.00549643 44037 GSAT0203 (PRN E26) 1 40544U 15017A 21110.10414818 -.00000071 00000-0 00000-0 0 9992 2 40544 56.6031 32.9674 0003355 285.8744 74.0919 1.70474514 37086 GSAT0204 (PRN E22) 1 40545U 15017B 21104.27861851 -.00000086 00000-0 00000+0 0 9992 2 40545 56.6101 33.1393 0039275 208.9789 351.7291 1.71700419 37648 IRNSS-1D 1 40547U 15018A 21110.36021671 -.00000290 00000-0 00000-0 0 9998 2 40547 28.6253 272.1931 0020698 177.4122 0.4824 1.00273329 22102 BEIDOU 17 (C31) 1 40549U 15019A 21110.23534191 -.00000152 00000-0 00000+0 0 9999 2 40549 52.5831 317.6616 0036795 186.8244 245.4395 1.00278848 22195 GPS BIIF-10 (PRN 08) 1 40730U 15033A 21110.09290313 -.00000058 00000-0 00000-0 0 9992 2 40730 55.4450 343.6859 0063391 359.6167 0.4248 2.00574210 42203 BEIDOU 18 (C57) 1 40748U 15037A 21110.23254869 -.00000085 00000-0 00000-0 0 9997 2 40748 55.9429 6.0092 0005589 6.7773 87.1155 1.86233339 39033 BEIDOU 19 (C58) 1 40749U 15037B 21110.35278671 -.00000085 00000-0 00000-0 0 9998 2 40749 55.9454 5.9918 0006240 332.4564 338.4149 1.86232205 39024 GSAT0205 (PRN E24) 1 40889U 15045A 21106.60668272 .00000003 00000-0 00000+0 0 9993 2 40889 55.9237 273.7438 0004806 28.2047 331.7828 1.70475428 34835 GSAT0206 (PRN E30) 1 40890U 15045B 21110.34567995 .00000015 00000-0 00000-0 0 9995 2 40890 55.9189 273.6371 0003121 26.3154 333.6740 1.70475384 34920 BEIDOU 20 (C18) 1 40938U 15053A 21110.43804185 -.00000099 00000-0 00000-0 0 9995 2 40938 52.1546 280.7205 0045089 189.3593 349.2680 1.00295594 20466 GPS BIIF-11 (PRN 10) 1 41019U 15062A 21110.13875325 .00000057 00000-0 00000-0 0 9990 2 41019 55.5135 104.5304 0067194 214.8207 144.7534 2.00563785 40041 GSAT-15 (GAGAN/PRN 139) 1 41028U 15065A 21110.40327022 -.00000258 00000-0 00000-0 0 9993 2 41028 0.1138 96.7589 0002930 312.3587 38.2792 1.00272745 19916 GSAT0209 (PRN E09) 1 41174U 15079A 21109.93323615 .00000054 00000-0 00000-0 0 9993 2 41174 55.0462 153.0464 0005338 302.5737 57.4516 1.70473671 32650 GSAT0208 (PRN E08) 1 41175U 15079B 21109.56633457 .00000053 00000-0 00000-0 0 9990 2 41175 55.0448 153.0556 0004709 301.2495 58.7809 1.70473749 33066 IRNSS-1E 1 41241U 16003A 21110.36021671 -.00000273 00000-0 00000-0 0 9996 2 41241 29.0520 91.2790 0018432 189.3434 169.3474 1.00265963 19185 GPS BIIF-12 (PRN 32) 1 41328U 16007A 21110.22954046 .00000037 00000-0 00000-0 0 9999 2 41328 54.8462 164.2657 0050145 225.1804 134.4835 2.00564958 38050 COSMOS 2514 (751) 1 41330U 16008A 21110.36559727 -.00000065 00000-0 00000-0 0 9997 2 41330 65.5636 16.9976 0008494 221.0595 264.1158 2.13102938 40472 IRNSS-1F 1 41384U 16015A 21110.56950633 .00000160 00000-0 00000-0 0 9992 2 41384 1.9510 193.1577 0023326 192.3584 60.8169 1.00269748 18779 BEIDOU IGSO-6 (C13) 1 41434U 16021A 21110.29900359 -.00000144 00000-0 00000-0 0 9998 2 41434 57.4826 57.2492 0039303 217.1118 138.5800 1.00281174 18589 IRNSS-1G 1 41469U 16027A 21110.58660501 -.00000334 00000-0 00000-0 0 9997 2 41469 1.9395 196.5543 0006088 246.5897 106.4586 1.00272886 18282 GSAT0211 (PRN E02) 1 41549U 16030A 21109.68740647 .00000015 00000-0 00000-0 0 9994 2 41549 56.0632 273.5435 0003050 348.1167 11.8488 1.70475128 30541 GSAT0210 (PRN E01) 1 41550U 16030B 21109.98023956 .00000015 00000-0 00000-0 0 9996 2 41550 56.0632 273.5371 0001611 314.2237 45.7362 1.70475308 30542 COSMOS 2516 (753) 1 41554U 16032A 21110.37308789 .00000030 00000-0 00000-0 0 9994 2 41554 64.0154 256.1669 0012161 212.4221 172.4503 2.13106840 38087 BEIDOU-2 G7 (C03) 1 41586U 16037A 21110.53668507 -.00000353 00000-0 00000-0 0 9998 2 41586 1.5782 65.4714 0009442 11.7182 75.3942 1.00274618 17901 E 117 W B (WAAS/PRN 131) 1 41589U 16038B 21110.54840956 -.00000011 00000-0 00000-0 0 9994 2 41589 0.0108 91.0233 0000495 20.6702 177.5736 1.00271158 17785 GSAT0207 (PRN E07) 1 41859U 16069A 21109.63931866 .00000052 00000-0 00000-0 0 9991 2 41859 54.7057 153.3409 0005376 290.9537 69.0654 1.70473616 27271 GSAT0212 (PRN E03) 1 41860U 16069B 21108.90616289 .00000051 00000-0 00000-0 0 9990 2 41860 54.7028 153.3595 0004093 308.2788 51.7614 1.70473668 27511 GSAT0213 (PRN E04) 1 41861U 16069C 21106.92552678 .00000047 00000-0 00000-0 0 9997 2 41861 54.7045 153.4189 0004930 272.5423 87.4833 1.70473723 27342 GSAT0214 (PRN E05) 1 41862U 16069D 21109.41887860 .00000052 00000-0 00000-0 0 9995 2 41862 54.7036 153.3448 0004071 276.5308 83.4995 1.70473804 27516 SES-15 (WAAS/PRN 133) 1 42709U 17026A 21110.53990464 .00000060 00000-0 00000-0 0 9999 2 42709 0.0374 39.3113 0000377 309.6709 285.0765 1.00269912 15266 QZS-2 (QZSS/PRN 184) 1 42738U 17028A 21110.47659269 -.00000176 00000-0 00000-0 0 9990 2 42738 42.4795 270.1196 0742087 270.6249 338.2106 1.00254570 14250 QZS-3 (QZSS/PRN 189) 1 42917U 17048A 21110.35465963 -.00000348 00000-0 00000-0 0 9995 2 42917 0.0872 131.7814 0002263 259.8149 71.7076 1.00266684 13362 COSMOS 2522 (752) 1 42939U 17055A 21110.34099498 .00000031 00000-0 00000-0 0 9990 2 42939 64.2485 256.4373 0005528 242.4560 341.9638 2.13101910 27833 QZS-4 (QZSS/PRN 185) 1 42965U 17062A 21109.58417480 -.00000302 00000-0 00000-0 0 9998 2 42965 40.8273 7.5874 0748090 270.4676 279.7212 1.00272822 12910 BEIDOU-3 M1 (C19) 1 43001U 17069A 21110.53116911 .00000077 00000-0 00000-0 0 9997 2 43001 55.3355 125.8789 0012059 288.2787 89.4520 1.86231768 23527 BEIDOU-3 M2 (C20) 1 43002U 17069B 21110.10153440 .00000073 00000-0 00000-0 0 9995 2 43002 55.3349 125.9290 0010743 306.1300 187.1093 1.86231640 23506 GSAT0215 (PRN E21) 1 43055U 17079A 21108.73637924 .00000012 00000-0 00000-0 0 9997 2 43055 56.0387 273.4086 0000985 322.1102 37.8529 1.70474378 20840 GSAT0216 (PRN E25) 1 43056U 17079B 21109.02891964 .00000013 00000-0 00000+0 0 9997 2 43056 56.0391 273.4002 0002616 291.3843 68.5587 1.70474500 20837 GSAT0217 (PRN E27) 1 43057U 17079C 21109.83562764 .00000015 00000-0 00000-0 0 9993 2 43057 56.0376 273.3784 0002538 314.8916 45.0606 1.70474405 20861 GSAT0218 (PRN E31) 1 43058U 17079D 21108.88245705 .00000013 00000-0 00000-0 0 9999 2 43058 56.0375 273.4019 0002965 283.7166 76.2208 1.70474440 20872 BEIDOU-3 M3 (C27) 1 43107U 18003A 21110.40175117 -.00000086 00000-0 00000-0 0 9993 2 43107 55.3852 7.1085 0005516 37.4019 102.9796 1.86232463 22279 BEIDOU-3 M4 (C28) 1 43108U 18003B 21110.37160074 -.00000086 00000-0 00000-0 0 9996 2 43108 55.3788 7.1014 0002610 267.9861 257.3585 1.86232434 22276 BEIDOU-3 M5 (C21) 1 43207U 18018A 21110.03534123 .00000072 00000-0 00000-0 0 9999 2 43207 55.2941 126.0238 0007773 320.4267 39.5623 1.86231846 21655 BEIDOU-3 M6 (C22) 1 43208U 18018B 21109.56507609 .00000066 00000-0 00000-0 0 9998 2 43208 55.2939 126.0438 0010051 296.8141 63.1278 1.86231682 21641 BEIDOU-3 M7 (C29) 1 43245U 18029A 21110.32549176 -.00000085 00000-0 00000-0 0 9994 2 43245 55.3183 4.9058 0001391 5.5484 353.8698 1.86232625 20808 BEIDOU-3 M8 (C30) 1 43246U 18029B 21110.59602181 -.00000084 00000-0 10000-3 0 9993 2 43246 55.3144 4.9283 0005249 353.7813 233.1544 1.86233063 20803 IRNSS-1I 1 43286U 18035A 21110.07138944 .00000120 00000-0 00000-0 0 9994 2 43286 28.9665 104.2961 0019850 188.4331 356.4322 1.00269452 11180 COSMOS 2527 (756) 1 43508U 18053A 21110.45776848 .00000085 00000-0 00000-0 0 9994 2 43508 64.8920 137.0101 0009198 241.3930 104.6605 2.13102612 22120 BEIDOU IGSO-7 (C16) 1 43539U 18057A 21110.47659269 -.00000129 00000-0 00000+0 0 9990 2 43539 55.0537 179.4738 0037080 220.2978 93.3126 1.00286916 10264 GSAT0221 (PRN E15) 1 43564U 18060A 21109.95412654 -.00000071 00000-0 00000-0 0 9995 2 43564 56.9881 32.6784 0004503 297.9805 61.9777 1.70475504 17045 GSAT0222 (PRN E33) 1 43565U 18060B 21109.58738429 -.00000071 00000-0 00000-0 0 9996 2 43565 56.9903 32.6883 0004469 306.9393 53.0237 1.70475518 17087 GSAT0219 (PRN E36) 1 43566U 18060C 21106.28844613 -.00000079 00000-0 00000-0 0 9992 2 43566 56.9893 32.7797 0004299 308.6863 51.2747 1.70475650 17008 GSAT0220 (PRN E13) 1 43567U 18060D 21110.02775630 -.00000071 00000-0 00000-0 0 9994 2 43567 56.9906 32.6790 0004227 304.1809 55.7828 1.70475528 17056 BEIDOU-3 M9 (C23) 1 43581U 18062A 21110.48284543 .00000006 00000-0 00000-0 0 9997 2 43581 54.4246 246.5849 0002030 280.3127 80.6871 1.86231810 18553 BEIDOU-3 M10 (C24) 1 43582U 18062B 21110.36159082 .00000006 00000-0 00000-0 0 9994 2 43582 54.4259 246.5781 0005277 14.7274 356.2865 1.86232030 18551 BEIDOU-3 M11 (C25) 1 43602U 18067A 21110.37338855 .00000006 00000-0 00000-0 0 9990 2 43602 54.5017 245.1558 0006898 5.5474 55.6742 1.86231615 18040 BEIDOU-3 M12 (C26) 1 43603U 18067B 21110.44270081 .00000005 00000-0 00000-0 0 9994 2 43603 54.5003 245.1211 0004093 358.5031 19.6632 1.86231543 18067 BEIDOU-3 M13 (C32) 1 43622U 18072A 21110.39608220 .00000076 00000-0 00000-0 0 9993 2 43622 55.2587 125.5814 0008614 285.1303 91.9686 1.86231623 17579 BEIDOU-3 M14 (C33) 1 43623U 18072B 21110.43030038 .00000076 00000-0 00000-0 0 9995 2 43623 55.2592 125.5734 0006813 303.5792 186.6957 1.86231589 17577 BEIDOU-3 M15 (C34) 1 43647U 18078A 21110.27802162 -.00000086 00000-0 10000-3 0 9990 2 43647 55.2111 5.1031 0007664 356.7742 286.6423 1.86233046 17077 BEIDOU-3 M16 (C35) 1 43648U 18078B 21110.26780877 -.00000086 00000-0 10000-3 0 9998 2 43648 55.2081 5.1114 0005703 4.2818 180.8407 1.86232240 17091 BEIDOU-3 G1 (C59) 1 43683U 18085A 21110.58608420 -.00000278 00000-0 00000-0 0 9992 2 43683 1.1498 233.8817 0002830 14.7693 311.3085 1.00271992 9162 COSMOS 2529 (757) 1 43687U 18086A 21110.56219082 .00000030 00000-0 00000-0 0 9992 2 43687 64.4625 256.6329 0007846 273.4533 76.2097 2.13102047 19148 BEIDOU-3 M17 (C36) 1 43706U 18093A 21110.23484549 .00000007 00000-0 00000-0 0 9992 2 43706 54.5078 246.4475 0008065 271.4192 148.2550 1.86231797 16442 BEIDOU-3 M18 (C37) 1 43707U 18093B 21110.03425000 .00000008 00000-0 00000-0 0 9999 2 43707 54.5083 246.4445 0006905 303.1646 72.8207 1.86232065 16444 GPS BIII-1 (PRN 04) 1 43873U 18109A 21110.56424808 .00000037 00000-0 00000-0 0 9996 2 43873 55.0274 166.5828 0012482 201.7738 294.6814 2.00553667 17298 BEIDOU-3 IGSO-1 (C38) 1 44204U 19023A 21110.26855009 -.00000193 00000-0 00000-0 0 9993 2 44204 55.9409 57.5459 0015466 204.6412 155.2114 1.00256640 7475 BEIDOU-2 G8 1 44231U 19027A 21110.60067343 -.00000248 00000-0 00000-0 0 9992 2 44231 0.3392 326.9753 0005344 235.2254 7.4333 1.00268607 7183 COSMOS 2534 (758) 1 44299U 19030A 21110.20452502 .00000032 00000-0 00000-0 0 9991 2 44299 64.5331 256.4906 0011111 295.4005 274.7358 2.13101983 14788 BEIDOU-3 IGSO-2 (C39) 1 44337U 19035A 21109.39306655 -.00000100 00000-0 00000-0 0 9991 2 44337 55.0847 175.5241 0017620 194.4218 83.3935 1.00250643 6796 GPS BIII-2 (PRN 18) 1 44506U 19056A 21110.42440591 -.00000054 00000-0 00000-0 0 9994 2 44506 55.4464 45.9243 0012683 179.5533 112.9187 2.00564318 12280 BEIDOU-3 M23 (C45) 1 44542U 19061A 21110.59026256 .00000005 00000-0 10000-3 0 9995 2 44542 54.7319 246.4945 0007349 337.0612 4.9512 1.86231465 10704 BEIDOU-3 M24 (C46) 1 44543U 19061B 21109.76246711 .00000010 00000-0 10000-3 0 9999 2 44543 54.7306 246.4927 0004568 331.6547 86.1318 1.86231860 10703 BEIDOU-3 IGSO-3 1 44709U 19073A 21108.96581678 -.00000133 00000-0 00000-0 0 9994 2 44709 57.9415 300.7628 0018188 197.5557 161.8634 1.00292347 5549 BEIDOU-3 M21 1 44793U 19078A 21110.18654079 -.00000086 00000-0 10000-3 0 9996 2 44793 55.0598 5.1791 0007518 3.5449 173.0528 1.86232559 9567 BEIDOU-3 M22 1 44794U 19078B 21110.32370697 -.00000086 00000-0 00000-0 0 9990 2 44794 55.0358 5.1735 0005452 357.1387 182.2939 1.86232804 9565 COSMOS 2544 (759) 1 44850U 19088A 21110.47401303 .00000086 00000-0 00000-0 0 9998 2 44850 64.8763 136.8708 0013916 265.6734 136.6530 2.13102386 10576 BEIDOU-3 M19 1 44864U 19090A 21110.37298500 .00000075 00000-0 00000-0 0 9996 2 44864 55.1934 125.8163 0018012 267.4515 139.6196 1.86231817 9150 BEIDOU-3 M20 1 44865U 19090B 21110.43950946 .00000076 00000-0 00000-0 0 9994 2 44865 55.1962 125.8454 0016671 281.0867 260.5122 1.86231819 9139 BEIDOU-3 G2 1 45344U 20017A 21110.66582558 -.00000143 00000-0 00000+0 0 9998 2 45344 2.5083 335.1462 0002879 91.8221 101.7314 1.00272452 4388 COSMOS 2545 (760) 1 45358U 20018A 21110.37896575 -.00000066 00000-0 00000-0 0 9994 2 45358 64.8948 17.9526 0008600 261.8301 277.6673 2.13102783 8510 BEIDOU-3 G3 1 45807U 20040A 21110.58503431 -.00000357 00000-0 00000-0 0 9990 2 45807 2.4186 298.5222 0006920 15.2001 216.2918 1.00275954 3198 GPS BIII-3 (PRN 23) 1 45854U 20041A 21110.09937417 .00000054 00000-0 00000-0 0 9997 2 45854 55.2253 103.1969 0009784 157.4020 202.6550 2.00566391 6240